(129) Antigone
ephemeris date magn radius delta ra dec elong phase
Today21 Nov 202411.72.264 AU3.236 AU15h47m-11°18'8.6°3.7°
Opposition5 Aug 202510.02.526 AU1.512 AU21h01m-15°58'179.0°0.4°
(129) Antigone - 2024-11-21
astro.vanbuitenen.nl


 
-1 year
-1 month
-1 day
Now
+1 day
+1 month
+1 year

The interactive orbit chart above shows the body's path through the solar system and its position at the given date. Green and blue lines are shown perpendicular to the ecliptic plane: Green if the path is above the ecliptic plane, blue if it is below. (Left-click and drag to rotate the view; Right-click and drag to move the view; Use scroll wheel to zoom in our out.)

The orbital elements of Antigone are:

            e (Eccentricity)                : 0.2130310
            a (Semimajor axis)              : 2.8686165
            i (Inclination)                 : 12.26859
            Ω (Longitude of ascending node) : 135.65901
            ω (Argument of perihelion)      : 110.59525
            M (Mean anomaly)                : 346.44037
            Epoch                           : 2024 Oct 17

            L (Longitude of perihelion)     : 66.69392
            B (Latitude of perihelion)      : 11.47345
            P (Orbital period in years)     : 4.86            
        

The light curve chart below shows the estimated development of the minor planet's magnitude.


The all-sky chart below shows the path of the minor planet over the same period as the light curve. The current position is marked yellow.





The following chart shows the path of the minor planet in the next few days. The field of view is optimized for (~10x50) binoculars and finderscopes. A more printer-friendly version of the same chart can be found below.




Ephemerides:
Date       Time       RA (2000)    DEC (2000)    delta   radius  elong  phase   PA    magn
2024-11-21 00:00 UT   15 47 01.9   -11 18 50     3.236    2.264    8.6    3.7     1   11.7 
2024-11-21 13:01 UT   15 48 10.4   -11 22 52     3.235    2.264    8.6    3.8   359   11.7 
2024-11-22 00:00 UT   15 49 08.3   -11 26 15     3.235    2.263    8.7    3.8   358   11.7 
2024-11-23 00:00 UT   15 51 14.8   -11 33 34     3.234    2.263    8.8    3.8   355   11.7 
2024-11-24 00:00 UT   15 53 21.5   -11 40 48     3.233    2.263    9.0    3.9   351   11.7 
2024-11-25 00:00 UT   15 55 28.4   -11 47 56     3.232    2.262    9.1    4.0   348   11.7 
2024-11-26 00:00 UT   15 57 35.4   -11 54 58     3.230    2.262    9.3    4.0   346   11.7 
2024-11-27 00:00 UT   15 59 42.6   -12 01 54     3.229    2.262    9.5    4.1   343   11.7 
2024-11-28 00:00 UT   16 01 50.0   -12 08 44     3.227    2.261    9.8    4.2   340   11.7 
2024-11-29 00:00 UT   16 03 57.6   -12 15 27     3.226    2.261   10.0    4.3   338   11.7 
2024-11-30 00:00 UT   16 06 05.2   -12 22 05     3.224    2.261   10.3    4.5   335   11.7 
2024-12-01 00:00 UT   16 08 13.1   -12 28 36     3.223    2.260   10.5    4.6   333   11.7 
2024-12-02 00:00 UT   16 10 21.1   -12 35 01     3.221    2.260   10.8    4.7   331   11.7 
2024-12-03 00:00 UT   16 12 29.2   -12 41 20     3.219    2.260   11.1    4.8   328   11.7 
2024-12-04 00:00 UT   16 14 37.4   -12 47 32     3.217    2.260   11.5    5.0   326   11.7 
2024-12-05 00:00 UT   16 16 45.8   -12 53 38     3.215    2.259   11.8    5.1   324   11.7 
2024-12-06 00:00 UT   16 18 54.2   -12 59 38     3.213    2.259   12.1    5.3   323   11.7 
2024-12-07 00:00 UT   16 21 02.8   -13 05 30     3.211    2.259   12.5    5.4   321   11.8 


    Terminology:
            
    delta:  distance between minor planet and earth in AU
    radius: distance between minor planet and sun in AU
    magn:   magnitude (brightness) estimate    
    ra:     right ascension in hours (24h = 360deg)
    dec:    declination in degrees
    elong:  elongation in degrees (angle sun-earth-minor planet)    
    phase:  phase angle in degrees (angle sun-minor planet-earth)        
    AU:     Astronomical Unit (mean distance between earth and sun: 149597870.7 km
    

Orbital elements provided by the MPC (Minor Planet Center).
Calculations by a modified version of AAPlus, a C# implementation of the AA+ project by PJ Naughter from the algorithms presented in the book "Astronomical Algorithms" by Jean Meeus.
NGC2000 dso catalog and star labels from VizieR as provided by the Strasbourg astronomical Data Center.
Tycho2 catalog from the ESO archive.